Regional Weather Roundup
Issued by NWS

Home | Current Version | Previous Version | Text Only | Print | Product List | Glossary On
Versions: 1 2 3 4 5 6 7 8 9 10 11 12 13 14 15 16 17 18 19 20 21 22 23 24 25 26 27 28 29 30 31 32 33 34 35 36 37 38 39 40 41 42 43 44 45 46 47 48 49 50
000
ASUS45 KABQ 141310
RWRNM
NEW MEXICO REGIONAL WEATHER ROUNDUP
NATIONAL WEATHER SERVICE ALBUQUERQUE NM
600 AM MST THU DEC 14 2017

NOTE: "FAIR" MEANS FEW OR NO CLOUDS BELOW 12,000 FEET AGL WITH NO
       SIGNIFICANT WEATHER OR OBSTRUCTIONS TO VISION.

      THIS PRODUCT IS RELEASED AS TWO VERSIONS.  ONE VERSION NEAR
      THE TOP OF THE HOUR CONTAINING PRELIMINARY DATA FROM ALBUQUERQUE
      AND OTHER STATIONS.  A FINAL VERSION WITH ADDITIONAL DATA IS
      ISSUED ABOUT 10 MINUTES AFTER THE HOUR.

NMZ501-503-504-510>518-141400-
NORTHWEST PLATEAU/NORTHCENTRAL MOUNTAINS

CITY           SKY/WX    TMP DP  RH WIND       PRES   REMARKS
FARMINGTON     FAIR      27  13  55 W5        29.98R WCI  22
LOS ALAMOS     FAIR      36   7  30 SW9       30.04R WCI  29
SANTA FE       FAIR      30  10  43 S6        30.02R WCI  24
TAOS           FAIR      36  10  34 SE17      30.04R WCI  26
ANGEL FIRE     FAIR      26  14  59 E14       30.10R WCI  15

$$
NMZ402-403-502-505>509-141400-
WESTCENTRAL MOUNTAINS/SOUTHWEST MOUNTAINS

CITY           SKY/WX    TMP DP  RH WIND       PRES   REMARKS
GALLUP         FAIR      17  -1  45 S3        30.05R
GRANTS         FAIR      15  -1  49 NW6       30.06R WCI   6
SILVER CITY    FAIR      33  15  48 NW10      30.01S WCI  25

$$
NMZ407-409-411-412-141400-
SOUTHERN DESERTS

CITY           SKY/WX    TMP DP  RH WIND       PRES   REMARKS
DEMING         FAIR      30  15  53 CALM      30.01R
LAS CRUCES     FAIR      30  21  69 NE5       30.01R WCI  25
HOLLOMAN AFB   FAIR      23   4  42 CALM      30.02R
ALAMOGORDO     FAIR      32  10  40 N6        30.00R WCI  26
T OR C         FAIR      30   6  36 CALM      30.00R

$$
NMZ519>523-141400-
CENTRAL VALLEYS/CENTRAL HIGHLANDS

CITY           SKY/WX    TMP DP  RH WIND       PRES   REMARKS
ALBUQUERQUE    CLOUDY    29   7  39 CALM      30.02R
MORIARTY ARPT  FAIR      16   4  60 CALM      30.08R
CLINES CORNERS FAIR      26   8  46 E12       30.08R WCI  16
BELEN          FAIR      22   2  41 CALM      30.03R
SOCORRO        FAIR      22   3  43 N8        30.02R WCI  13

$$
NMZ524>526-539-540-141400-
SOUTHCENTRAL MOUNTAINS

CITY           SKY/WX    TMP DP  RH WIND       PRES   REMARKS
RUIDOSO        FAIR      32   5  32 CALM      30.07R

$$
NMZ527>531-141400-
NORTHEAST HIGHLANDS/NORTHEAST PLAINS

CITY           SKY/WX    TMP DP  RH WIND       PRES   REMARKS
LAS VEGAS      FAIR      21  10  62 E8        30.11R WCI  11
RATON          CLOUDY    32  12  43 NE14      30.11R WCI  22
CLAYTON        FAIR      29  16  58 N12       30.15R WCI  19

$$
NMZ532>537-141400-
EASTCENTRAL PLAINS

CITY           SKY/WX    TMP DP  RH WIND       PRES   REMARKS
SANTA ROSA     FAIR      31  14  49 NW8       30.10R WCI  23
TUCUMCARI      FAIR      31  15  52 NE10      30.11R WCI  22
CANNON AFB     FAIR      30  14  52 NE15      30.09R WCI  19
CLOVIS AIRPORT FAIR      27  15  61 NE13      30.09R WCI  16

$$
NMZ028-029-538-141400-
SOUTHEAST PLAINS

CITY           SKY/WX    TMP DP  RH WIND       PRES   REMARKS
ROSWELL        FAIR      25   9  50 N5        30.05R WCI  19
ARTESIA        FAIR      30   9  40 NW8       30.06R WCI  23
CARLSBAD       FAIR      33  18  53 N8        30.03R WCI  26
HOBBS          CLEAR     28  16  59 N9        30.04R WCI  20


$$



USA.gov is the U.S. government's official web portal to all federal, state and local government web resources and services.